Location: Newark
(13.6797°N, 8.5297°E)
Time: 04:06:17
(UTC+00:00)

Courier 1B Rocket - Pass Details

Date: 24 January 2020
Orbit: 920 x 1202 km, 28.2° (Epoch: 17 February)

Event Time Altitude Azimuth Distance (km) Brightness Sun altitude
Rises 13:44:15 0° 299° (WNW) 3,781 8.2 44.7°
Reaches altitude 10° 13:47:42 10° 313° (NW) 2,776 7.5 44.1°
Maximum altitude 13:52:44 22° 3° (N) 1,971 6.5 43.2°
Drops below altitude 10° 13:57:35 10° 52° (NE) 2,652 6.9 42.4°
Sets 14:00:47 0° 68° (ENE) 3,569 7.5 41.8°
